| time (UTC) | temp C | wind direction | speed KPH | gust KPH | rain 1hr cm | rain 24hr cm | rain mn cm | humidity % | barometer mb |
| 20260503021548 | 9 | 37 | 0.0 | 0.0 | 0.00 | 0.00 | 0.00 | 91 | 1025.7 |
| 20260503020056 | 9 | 37 | 0.0 | 0.0 | 0.00 | 0.00 | 0.00 | 90 | 1025.7 |
| 20260503014552 | 9 | 37 | 0.0 | 0.0 | 0.00 | 0.00 | 0.00 | 91 | 1025.7 |
| 20260503013044 | 9 | 37 | 0.0 | 0.0 | 0.00 | 0.00 | 0.00 | 90 | 1025.7 |
| 20260503011548 | 9 | 37 | 0.0 | 0.0 | 0.00 | 0.00 | 0.00 | 90 | 1025.7 |
| 20260503010042 | 10 | 37 | 0.0 | 0.0 | 0.00 | 0.00 | 0.00 | 90 | 1025.7 |
| 20260503004541 | 10 | 37 | 0.0 | 0.0 | 0.00 | 0.00 | 0.00 | 90 | 1025.7 |
| 20260503003041 | 10 | 37 | 0.0 | 0.0 | 0.00 | 0.00 | 0.00 | 90 | 1025.7 |
| 20260503001540 | 10 | 37 | 0.0 | 0.0 | 0.00 | 0.00 | 0.00 | 90 | 1025.7 |
| 20260503000056 | 10 | 37 | 0.0 | 0.0 | 0.00 | 0.00 | 0.00 | 89 | 1025.7 |
| 20260502234540 | 10 | 37 | 0.0 | 0.0 | 0.00 | 0.00 | 0.00 | 88 | 1025.7 |
| 20260502233040 | 10 | 37 | 0.0 | 0.0 | 0.00 | 0.00 | 0.00 | 87 | 1025.7 |
| 20260502231547 | 11 | 37 | 0.0 | 0.0 | 0.00 | 0.00 | 0.00 | 85 | 1025.7 |
| 20260502230038 | 11 | 37 | 0.0 | 0.0 | 0.00 | 0.00 | 0.00 | 83 | 1025.7 |
| 20260502224538 | 11 | 37 | 0.0 | 0.0 | 0.00 | 0.00 | 0.00 | 80 | 1025.7 |
| 20260502223038 | 12 | 37 | 0.0 | 0.0 | 0.00 | 0.00 | 0.00 | 78 | 1025.7 |
| 20260502221538 | 12 | 12 | 0.0 | 8.0 | 0.00 | 0.00 | 0.00 | 75 | 1025.7 |
| 20260502220046 | 12 | 248 | 0.0 | 0.0 | 0.00 | 0.00 | 0.00 | 69 | 1025.7 |
| 20260502214536 | 12 | 243 | 0.0 | 1.6 | 0.00 | 0.00 | 0.00 | 68 | 1025.7 |
| 20260502213036 | 13 | 257 | 1.6 | 9.7 | 0.00 | 0.00 | 0.00 | 68 | 1025.7 |
| 20260502211536 | 13 | 237 | 0.0 | 8.0 | 0.00 | 0.00 | 0.00 | 68 | 1025.7 |
| 20260502210032 | 13 | 312 | 0.0 | 8.0 | 0.00 | 0.00 | 0.00 | 67 | 1025.7 |
| 20260502204530 | 13 | 248 | 0.0 | 6.4 | 0.00 | 0.00 | 0.00 | 65 | 1025.7 |
| 20260502203028 | 13 | 171 | 0.0 | 6.4 | 0.00 | 0.00 | 0.00 | 64 | 1025.7 |
| 20260502201530 | 13 | 262 | 0.0 | 9.7 | 0.00 | 0.00 | 0.00 | 71 | 1025.7 |
| 20260502200026 | 13 | 262 | 0.0 | 8.0 | 0.00 | 0.00 | 0.00 | 71 | 1025.7 |
| 20260502194525 | 13 | 241 | 0.0 | 6.4 | 0.00 | 0.00 | 0.00 | 71 | 1025.7 |
| 20260502193024 | 13 | 248 | 0.0 | 11.3 | 0.00 | 0.00 | 0.00 | 71 | 1025.7 |
| 20260502191522 | 12 | 358 | 0.0 | 8.0 | 0.00 | 0.00 | 0.00 | 74 | 1025.7 |
| 20260502190027 | 12 | 235 | 0.0 | 8.0 | 0.00 | 0.00 | 0.00 | 76 | 1025.7 |
| 20260502184521 | 13 | 266 | 1.6 | 11.3 | 0.00 | 0.00 | 0.00 | 76 | 1025.7 |
| 20260502183021 | 13 | 250 | 0.0 | 8.0 | 0.00 | 0.00 | 0.00 | 75 | 1025.7 |
| 20260502181520 | 13 | 251 | 0.0 | 3.2 | 0.00 | 0.00 | 0.00 | 76 | 1025.7 |
| 20260502163024 | 12 | 278 | 0.0 | 6.4 | 0.00 | 0.00 | 0.00 | 79 | 1025.7 |
| 20260502161517 | 12 | 281 | 0.0 | 0.0 | 0.00 | 0.00 | 0.00 | 79 | 1025.7 |
| 20260502151504 | 11 | 131 | 0.0 | 1.6 | 0.00 | 0.00 | 0.00 | 83 | 1025.7 |
| 20260502130104 | 7 | 104 | 0.0 | 0.0 | 0.00 | 0.00 | 0.00 | 88 | 1025.7 |
| 20260502123109 | 7 | 108 | 0.0 | 0.0 | 0.00 | 0.00 | 0.00 | 89 | 1025.7 |
| 20260502121538 | 7 | 108 | 0.0 | 0.0 | 0.00 | 0.00 | 0.00 | 89 | 1025.7 |
| 20260502114540 | 7 | 108 | 0.0 | 0.0 | 0.00 | 0.00 | 0.00 | 87 | 1025.7 |
| 20260502113037 | 8 | 108 | 0.0 | 0.0 | 0.00 | 0.00 | 0.00 | 87 | 1025.7 |
| 20260502111534 | 7 | 108 | 0.0 | 0.0 | 0.00 | 0.00 | 0.00 | 87 | 1025.7 |
| 20260502110044 | 7 | 108 | 0.0 | 0.0 | 0.00 | 0.00 | 0.00 | 88 | 1025.7 |
| 20260502104529 | 7 | 108 | 0.0 | 0.0 | 0.00 | 0.00 | 0.00 | 88 | 1025.7 |
| 20260502103032 | 6 | 108 | 0.0 | 0.0 | 0.00 | 0.00 | 0.00 | 87 | 1025.7 |
| 20260502101526 | 7 | 108 | 0.0 | 0.0 | 0.00 | 0.00 | 0.00 | 87 | 1025.7 |
| 20260502091521 | 6 | 108 | 0.0 | 0.0 | 0.00 | 0.00 | 0.00 | 88 | 1025.7 |
| 20260502071512 | 5 | 108 | 0.0 | 0.0 | 0.00 | 0.00 | 0.00 | 88 | 1025.7 |
| 20260502070012 | 5 | 108 | 0.0 | 0.0 | 0.00 | 0.00 | 0.00 | 87 | 1025.7 |
| 20260502064511 | 5 | 108 | 0.0 | 0.0 | 0.00 | 0.00 | 0.00 | 87 | 1025.7 |
| 20260502063011 | 5 | 108 | 0.0 | 0.0 | 0.00 | 0.00 | 0.00 | 87 | 1025.7 |
| 20260502061507 | 5 | 108 | 0.0 | 0.0 | 0.00 | 0.00 | 0.00 | 85 | 1025.7 |
| 20260502060005 | 5 | 108 | 0.0 | 0.0 | 0.00 | 0.00 | 0.00 | 84 | 1025.7 |
| 20260502054505 | 5 | 108 | 0.0 | 0.0 | 0.00 | 0.00 | 0.00 | 84 | 1025.7 |
| 20260502053003 | 6 | 108 | 0.0 | 0.0 | 0.00 | 0.00 | 0.00 | 83 | 1025.7 |
| 20260502051503 | 6 | 108 | 0.0 | 0.0 | 0.00 | 0.00 | 0.00 | 82 | 1025.7 |
| 20260502050003 | 6 | 108 | 0.0 | 0.0 | 0.00 | 0.00 | 0.00 | 81 | 1025.7 |
| 20260502044601 | 6 | 108 | 0.0 | 0.0 | 0.00 | 0.00 | 0.00 | 81 | 1025.7 |
| 20260502043117 | 6 | 108 | 0.0 | 0.0 | 0.00 | 0.00 | 0.00 | 82 | 1025.7 |
| 20260502041558 | 6 | 108 | 0.0 | 0.0 | 0.00 | 0.00 | 0.00 | 83 | 1025.7 |
| 20260502040105 | 5 | 108 | 0.0 | 0.0 | 0.00 | 0.00 | 0.00 | 84 | 1025.7 |
| 20260502034602 | 5 | 108 | 0.0 | 0.0 | 0.00 | 0.00 | 0.00 | 82 | 1025.7 |
| 20260502033056 | 5 | 108 | 0.0 | 0.0 | 0.00 | 0.00 | 0.00 | 80 | 1025.7 |
| 20260502031551 | 6 | 108 | 0.0 | 0.0 | 0.00 | 0.00 | 0.00 | 79 | 1025.7 |
| 20260502030050 | 6 | 108 | 0.0 | 0.0 | 0.00 | 0.00 | 0.00 | 79 | 1025.7 |
| 20260502024607 | 6 | 108 | 0.0 | 0.0 | 0.00 | 0.00 | 0.00 | 77 | 1025.7 |
| 20260502023048 | 6 | 108 | 0.0 | 0.0 | 0.00 | 0.00 | 0.00 | 76 | 1025.7 |